Location: El Frío
(10.0713°N, 67.9111°W)
Time: 18:39:27
(UTC+00:00)

SL-8 R/B - Pass Details

Date: 11 December 2025
Orbit: 647 x 656 km, 48.4° (Epoch: 19 January)

Event Time Altitude Azimuth Distance (km) Brightness Sun altitude
Rises 23:23:40 0° 225° (SW) 2,952 8.3 -17.3°
Reaches altitude 10° 23:26:01 10° 228° (SW) 2,043 7.3 -17.8°
Maximum altitude 23:30:41 65° 310° (NW) 713 3.9 -18.9°
Enters shadow 23:32:53 30° 23° (NNE) 1,150 4.5 -19.4°
